EW6767 Weather Reports


time (UTC)temp
C
wind
direction
speed
KPH
gust
KPH
rain 1hr
cm
rain 24hr
cm
rain mn
cm
humidity
%
barometer
mb
20260509021600 12 110 0.0 0.0 0.05 0.08 0.08 91 1027.8
20260509020101 12 110 0.0 0.0 0.05 0.08 0.08 91 1027.6
20260509014559 12 110 0.0 0.0 0.05 0.05 0.05 90 1027.5
20260509013107 13 110 0.0 0.0 0.03 0.03 0.03 88 1027.3
20260509011600 13 110 0.0 0.0 0.03 0.03 0.03 86 1027.2
20260509010058 13 110 0.0 1.6 0.03 0.03 0.03 84 1027.2
20260509004558 13 245 0.0 1.6 0.00 0.00 0.00 89 1027.3
20260509003057 13 232 0.0 0.0 0.00 0.00 0.00 88 1026.9
20260509001556 13 232 0.0 0.0 0.00 0.00 0.00 88 1026.7
20260509000111 13 232 0.0 0.0 0.00 0.00 0.00 88 1026.6
20260508234556 13 232 0.0 0.0 0.00 0.00 0.00 87 1026.7
20260508233110 14 232 0.0 0.0 0.00 0.00 0.00 85 1026.7
20260508231554 15 232 0.0 0.0 0.00 0.00 0.00 84 1026.6
20260508230056 15 232 0.0 0.0 0.00 0.00 0.00 81 1026.6
20260508224553 16 232 0.0 0.0 0.00 0.00 0.00 78 1026.4
20260508223052 16 232 0.0 0.0 0.00 0.00 0.00 73 1026.3
20260508221552 16 232 0.0 0.0 0.00 0.00 0.00 72 1026.5
20260508220051 17 232 0.0 0.0 0.00 0.00 0.00 69 1026.5
20260508214550 17 232 0.0 0.0 0.00 0.00 0.00 65 1026.4
20260508213049 18 232 0.0 0.0 0.00 0.00 0.00 60 1026.4
20260508211548 18 56 0.0 1.6 0.00 0.00 0.00 55 1026.6
20260508210047 18 51 0.0 3.2 0.00 0.00 0.00 51 1026.7
20260508204550 19 172 0.0 1.6 0.00 0.00 0.00 51 1027.0
20260508203043 19 231 0.0 3.2 0.00 0.00 0.00 50 1027.1
20260508201542 19 218 0.0 8.0 0.00 0.00 0.00 49 1027.4
20260508200100 19 229 0.0 9.7 0.00 0.00 0.00 48 1027.4
20260508194539 19 232 1.6 4.8 0.00 0.00 0.00 47 1027.6
20260508193046 19 229 0.0 8.0 0.00 0.00 0.00 47 1027.6
20260508191537 20 221 3.2 9.7 0.00 0.00 0.00 44 1027.9
20260508190034 21 224 3.2 12.9 0.00 0.00 0.00 47 1028.1
20260508184530 20 196 4.8 16.1 0.00 0.00 0.00 48 1028.3
20260508183028 20 240 3.2 16.1 0.00 0.00 0.00 48 1028.6
20260508181531 19 238 8.0 16.1 0.00 0.00 0.00 49 1028.9
20260508180024 19 215 3.2 17.7 0.00 0.00 0.00 48 1029.2
20260508174522 19 251 4.8 16.1 0.00 0.00 0.00 50 1029.3
20260508173022 18 226 4.8 14.5 0.00 0.00 0.00 49 1029.5
20260508171519 19 218 0.0 11.3 0.00 0.00 0.00 49 1029.7
20260508170018 20 139 3.2 17.7 0.00 0.00 0.00 46 1029.9
20260508164515 20 222 1.6 11.3 0.00 0.00 0.00 49 1030.3
20260508163019 20 225 4.8 12.9 0.00 0.00 0.00 47 1030.5
20260508161516 19 286 4.8 12.9 0.00 0.00 0.00 48 1030.6
20260508160011 19 255 3.2 16.1 0.00 0.00 0.00 48 1030.8
20260508154531 19 236 4.8 17.7 0.00 0.00 0.00 48 1030.9
20260508153006 18 226 4.8 11.3 0.00 0.00 0.00 50 1031.1
20260508151508 17 246 3.2 12.9 0.00 0.00 0.00 55 1031.2
20260508150002 18 264 0.0 9.7 0.00 0.00 0.00 53 1031.3
20260508144610 18 226 0.0 8.0 0.00 0.00 0.00 53 1031.2
20260508143102 16 229 3.2 12.9 0.00 0.00 0.00 56 1031.5
20260508141558 15 252 4.8 12.9 0.00 0.00 0.00 58 1031.8
20260508140049 15 259 0.0 11.3 0.00 0.00 0.00 60 1031.9
20260508134557 13 219 0.0 6.4 0.00 0.00 0.00 61 1032.1
20260508133050 13 231 3.2 11.3 0.00 0.00 0.00 63 1032.1
20260508131538 12 259 0.0 6.4 0.00 0.00 0.00 67 1032.0
20260508130034 11 226 3.2 12.9 0.00 0.00 0.00 67 1032.0
20260508124534 11 236 1.6 4.8 0.00 0.00 0.00 70 1031.9
20260508123042 10 233 4.8 9.7 0.00 0.00 0.00 71 1032.0
20260508121528 9 233 0.0 4.8 0.00 0.00 0.00 75 1032.0
20260508120017 8 225 0.0 3.2 0.00 0.00 0.00 78 1032.0
20260508114512 8 257 0.0 1.6 0.00 0.00 0.00 81 1031.9
20260508113018 7 257 0.0 0.0 0.00 0.00 0.00 82 1031.8
20260508111509 7 257 0.0 0.0 0.00 0.00 0.00 83 1031.6
20260508110008 7 252 0.0 0.0 0.00 0.00 0.00 84 1031.6
20260508104507 7 252 0.0 1.6 0.00 0.00 0.00 83 1031.4
20260508103007 7 281 0.0 1.6 0.00 0.00 0.00 84 1031.3
20260508101503 7 276 0.0 1.6 0.00 0.00 0.00 85 1031.5
20260508100002 6 276 0.0 1.6 0.00 0.00 0.00 89 1031.6
20260508094608 5 214 0.0 0.0 0.00 0.00 0.00 91 1031.5
20260508093058 5 214 0.0 0.0 0.00 0.00 0.00 90 1031.7
20260508091605 5 214 0.0 1.6 0.00 0.00 0.00 90 1031.8
20260508090114 5 214 0.0 0.0 0.00 0.00 0.00 91 1031.8
20260508084556 5 214 0.0 0.0 0.00 0.00 0.00 91 1031.7
20260508083055 5 214 0.0 0.0 0.00 0.00 0.00 90 1031.7
20260508081605 5 214 0.0 0.0 0.00 0.00 0.00 90 1031.8
20260508080059 5 214 0.0 0.0 0.00 0.00 0.00 89 1031.7
20260508074551 5 214 0.0 0.0 0.00 0.00 0.00 89 1031.6
20260508073106 5 214 0.0 0.0 0.00 0.00 0.00 88 1031.5
20260508071548 5 214 0.0 0.0 0.00 0.00 0.00 88 1031.7
20260508070049 5 214 0.0 0.0 0.00 0.00 0.00 88 1031.8
20260508064549 5 214 0.0 1.6 0.00 0.00 0.00 88 1031.9
20260508063045 5 214 0.0 0.0 0.00 0.00 0.00 87 1032.1
20260508061545 6 214 0.0 0.0 0.00 0.00 0.00 87 1032.1
20260508060100 6 214 0.0 1.6 0.00 0.00 0.00 88 1032.0
20260508054542 6 214 0.0 0.0 0.00 0.00 0.00 88 1032.1
20260508053040 6 214 0.0 0.0 0.00 0.00 0.00 87 1032.3
20260508051556 6 214 0.0 0.0 0.00 0.00 0.00 87 1032.2
20260508050038 6 214 0.0 1.6 0.00 0.00 0.00 88 1032.2
20260508044540 6 214 0.0 0.0 0.00 0.00 0.00 88 1032.2
20260508043035 6 214 0.0 0.0 0.00 0.00 0.00 87 1032.1
20260508041534 6 214 0.0 0.0 0.00 0.00 0.00 86 1032.0
20260508040037 6 214 0.0 0.0 0.00 0.00 0.00 85 1031.9
20260508034541 7 214 0.0 0.0 0.00 0.00 0.00 83 1032.0
20260508033030 7 214 0.0 1.6 0.00 0.00 0.00 82 1031.9
20260508031535 8 214 0.0 1.6 0.00 0.00 0.00 81 1031.9
20260508030029 8 214 0.0 0.0 0.00 0.00 0.00 81 1031.9
20260508024550 8 214 0.0 0.0 0.00 0.00 0.00 81 1031.8
20260508023027 8 214 0.0 1.6 0.00 0.00 0.00 80 1031.7